Back to Top

Language: 

My Weather Underground Personal Weather Station Historical Data with Graphs...

Delerius Weather Station Historical Data
Daily Summary for February 3, 2017 Units:  English    Metric   Both
« Previous Day
Next Day »
Daily Weekly Monthly Yearly Custom
  High: Low: Average:
Temperature: 50.6 °F 43.0 °F 46.6 °F
Dew Point: 43.8 °F 39.7 °F 42 °F
Humidity: 95 % 73 % 84 %
Wind Speed: 20.0 mph 2.0 mph 10.4 mph
Wind Gust: 34.0 mph - -
Wind:- - SSE
Pressure: 29.38 in 29.14 in -
Precipitation: 0.05 in    
Historical Graphs
 
 
Tabular Data for February 3, 2017
Time Temperature Dew Point Pressure Wind Wind Speed Wind Gust Humidity Rainfall Rate (Hourly) solar Conditions
00:05 50.6 °F 43.7 °F 29.20 in South 15.0 mph 21.0 mph 77 % 0.00 in 0 W/m2
00:15 50.6 °F 43.7 °F 29.20 in SSW 20.0 mph 28.0 mph 77 % 0.00 in 0 W/m2
00:20 50.4 °F 43.8 °F 29.20 in SSW 19.0 mph 19.0 mph 78 % 0.00 in 0 W/m2
00:25 50.3 °F 43.7 °F 29.20 in South 17.0 mph 19.0 mph 78 % 0.00 in 0 W/m2
00:35 50.2 °F 43.3 °F 29.21 in South 20.0 mph 30.0 mph 77 % 0.00 in 0 W/m2
00:40 50.1 °F 43.2 °F 29.21 in South 19.0 mph 19.0 mph 77 % 0.00 in 0 W/m2
00:45 50.0 °F 43.4 °F 29.22 in SSW 16.0 mph 19.0 mph 78 % 0.00 in 0 W/m2
00:50 49.9 °F 43.0 °F 29.22 in SW 16.0 mph 16.0 mph 77 % 0.00 in 0 W/m2
00:55 49.8 °F 43.2 °F 29.22 in SSW 17.0 mph 17.0 mph 78 % 0.00 in 0 W/m2
01:05 49.7 °F 42.8 °F 29.23 in SSW 15.0 mph 21.0 mph 77 % 0.00 in 0 W/m2
01:10 49.8 °F 42.9 °F 29.23 in SW 15.0 mph 15.0 mph 77 % 0.00 in 0 W/m2
01:15 49.8 °F 42.9 °F 29.23 in SW 14.0 mph 34.0 mph 77 % 0.00 in 0 W/m2
01:20 49.7 °F 43.1 °F 29.23 in SW 14.0 mph 14.0 mph 78 % 0.00 in 0 W/m2
01:29 49.6 °F 43.0 °F 29.23 in SSW 14.0 mph 34.0 mph 78 % 0.00 in 0 W/m2
01:34 49.6 °F 43.0 °F 29.24 in SSW 15.0 mph 34.0 mph 78 % 0.00 in 0 W/m2
01:40 49.5 °F 42.9 °F 29.24 in SW 15.0 mph 34.0 mph 78 % 0.00 in 0 W/m2
01:45 49.4 °F 42.8 °F 29.24 in SSW 16.0 mph 34.0 mph 78 % 0.00 in 0 W/m2
01:50 49.4 °F 42.8 °F 29.25 in SSW 17.0 mph 17.0 mph 78 % 0.00 in 0 W/m2
01:59 49.2 °F 42.6 °F 29.24 in SW 17.0 mph 17.0 mph 78 % 0.00 in 0 W/m2
02:05 49.0 °F 42.8 °F 29.24 in SSW 17.0 mph 34.0 mph 79 % 0.00 in 0 W/m2
02:10 48.9 °F 42.7 °F 29.25 in SW 15.0 mph 15.0 mph 79 % 0.00 in 0 W/m2
02:19 48.7 °F 42.8 °F 29.25 in South 12.0 mph 34.0 mph 80 % 0.00 in 0 W/m2
02:25 48.6 °F 42.7 °F 29.25 in SSW 13.0 mph 34.0 mph 80 % 0.00 in 0 W/m2
02:30 48.7 °F 42.5 °F 29.25 in SW 15.0 mph 34.0 mph 79 % 0.00 in 0 W/m2
02:35 48.7 °F 42.1 °F 29.25 in SSW 16.0 mph 34.0 mph 78 % 0.00 in 0 W/m2
02:40 48.6 °F 42.0 °F 29.25 in SSW 15.0 mph 15.0 mph 78 % 0.00 in 0 W/m2
02:50 48.5 °F 42.3 °F 29.25 in SSW 13.0 mph 13.0 mph 79 % 0.00 in 0 W/m2
02:55 48.4 °F 42.2 °F 29.25 in SW 11.0 mph 34.0 mph 79 % 0.00 in 0 W/m2
03:00 48.3 °F 42.1 °F 29.26 in South 12.0 mph 12.0 mph 79 % 0.00 in 0 W/m2
03:05 48.2 °F 42.0 °F 29.26 in SSW 12.0 mph 34.0 mph 79 % 0.00 in 0 W/m2
03:10 48.1 °F 42.2 °F 29.26 in SSW 10.0 mph 10.0 mph 80 % 0.00 in 0 W/m2
03:20 47.8 °F 41.9 °F 29.27 in SSW 11.0 mph 34.0 mph 80 % 0.00 in 0 W/m2
03:25 47.8 °F 42.3 °F 29.27 in SSW 10.0 mph 34.0 mph 81 % 0.00 in 0 W/m2
03:30 47.7 °F 42.5 °F 29.27 in SSW 11.0 mph 34.0 mph 82 % 0.00 in 0 W/m2
03:35 47.6 °F 42.4 °F 29.27 in South 11.0 mph 34.0 mph 82 % 0.00 in 0 W/m2
03:40 47.6 °F 42.4 °F 29.27 in South 11.0 mph 34.0 mph 82 % 0.00 in 0 W/m2
03:45 47.3 °F 42.4 °F 29.26 in SSE 10.0 mph 34.0 mph 83 % 0.00 in 0 W/m2
03:55 47.1 °F 42.2 °F 29.26 in SSW 10.0 mph 34.0 mph 83 % 0.00 in 0 W/m2
04:00 47.0 °F 42.1 °F 29.27 in SW 9.0 mph 9.0 mph 83 % 0.00 in 0 W/m2
04:05 47.0 °F 42.1 °F 29.27 in South 10.0 mph 12.0 mph 83 % 0.00 in 0 W/m2
04:10 47.0 °F 42.1 °F 29.28 in South 10.0 mph 34.0 mph 83 % 0.00 in 0 W/m2
04:15 46.9 °F 42.0 °F 29.28 in SSW 9.0 mph 34.0 mph 83 % 0.00 in 0 W/m2
04:25 46.9 °F 42.0 °F 29.28 in SSW 10.0 mph 34.0 mph 83 % 0.00 in 0 W/m2
04:30 46.8 °F 41.9 °F 29.28 in South 11.0 mph 34.0 mph 83 % 0.00 in 0 W/m2
04:35 46.7 °F 41.8 °F 29.28 in South 11.0 mph 34.0 mph 83 % 0.00 in 0 W/m2
04:40 46.7 °F 42.1 °F 29.28 in SSE 10.0 mph 34.0 mph 84 % 0.00 in 0 W/m2
04:45 46.6 °F 42.0 °F 29.28 in SSW 11.0 mph 34.0 mph 84 % 0.00 in 0 W/m2
04:50 46.5 °F 41.6 °F 29.29 in South 12.0 mph 34.0 mph 83 % 0.00 in 0 W/m2
05:00 46.3 °F 41.4 °F 29.29 in SSW 11.0 mph 34.0 mph 83 % 0.00 in 0 W/m2
05:05 46.3 °F 41.1 °F 29.29 in SSW 12.0 mph 34.0 mph 82 % 0.00 in 0 W/m2
05:10 46.2 °F 41.0 °F 29.29 in South 13.0 mph 13.0 mph 82 % 0.00 in 0 W/m2
05:15 46.2 °F 41.0 °F 29.29 in South 14.0 mph 18.0 mph 82 % 0.00 in 0 W/m2
05:20 46.2 °F 41.0 °F 29.29 in South 13.0 mph 13.0 mph 82 % 0.00 in 0 W/m2
05:30 46.0 °F 41.1 °F 29.30 in South 12.0 mph 12.0 mph 83 % 0.00 in 0 W/m2
05:35 45.9 °F 40.7 °F 29.30 in SSW 11.0 mph 13.0 mph 82 % 0.00 in 0 W/m2
05:40 45.8 °F 40.6 °F 29.30 in SSE 10.0 mph 10.0 mph 82 % 0.00 in 0 W/m2
05:45 45.7 °F 40.8 °F 29.30 in South 10.0 mph 34.0 mph 83 % 0.00 in 0 W/m2
05:50 45.6 °F 40.7 °F 29.30 in SSW 9.0 mph 9.0 mph 83 % 0.00 in 0 W/m2
05:55 45.5 °F 40.6 °F 29.31 in SW 8.0 mph 34.0 mph 83 % 0.00 in 0 W/m2
06:05 45.3 °F 40.7 °F 29.31 in SW 7.0 mph 34.0 mph 84 % 0.00 in 0 W/m2
06:10 45.1 °F 40.6 °F 29.31 in SW 7.0 mph 34.0 mph 84 % 0.00 in 0 W/m2
06:15 45.0 °F 40.5 °F 29.32 in SW 7.0 mph 34.0 mph 84 % 0.00 in 0 W/m2
06:20 44.9 °F 40.7 °F 29.32 in SSW 6.0 mph 34.0 mph 85 % 0.00 in 0 W/m2
06:25 44.7 °F 40.5 °F 29.33 in SSW 5.0 mph 34.0 mph 85 % 0.00 in 0 W/m2
06:35 44.4 °F 40.5 °F 29.33 in SSW 5.0 mph 8.0 mph 86 % 0.00 in 0 W/m2
06:40 44.3 °F 40.4 °F 29.34 in SSW 5.0 mph 34.0 mph 86 % 0.00 in 0 W/m2
06:45 44.1 °F 40.2 °F 29.33 in SW 6.0 mph 34.0 mph 86 % 0.00 in 0 W/m2
06:50 44.1 °F 40.2 °F 29.34 in SSW 7.0 mph 7.0 mph 86 % 0.00 in 0 W/m2
06:55 44.0 °F 40.1 °F 29.34 in SSW 8.0 mph 12.0 mph 86 % 0.00 in 0 W/m2
07:00 43.9 °F 40.0 °F 29.34 in SW 9.0 mph 9.0 mph 86 % 0.00 in 0 W/m2
07:10 43.9 °F 40.3 °F 29.34 in SW 10.0 mph 10.0 mph 87 % 0.00 in 0 W/m2
07:15 43.9 °F 40.3 °F 29.35 in SSW 11.0 mph 14.0 mph 87 % 0.00 in 0 W/m2
07:20 44.0 °F 40.4 °F 29.35 in SSW 12.0 mph 12.0 mph 87 % 0.00 in 0 W/m2
07:25 44.0 °F 40.1 °F 29.35 in SW 12.0 mph 34.0 mph 86 % 0.00 in 0 W/m2
07:30 43.9 °F 40.0 °F 29.35 in SSW 10.0 mph 10.0 mph 86 % 0.00 in 0 W/m2
07:39 43.9 °F 40.0 °F 29.35 in SSW 11.0 mph 34.0 mph 86 % 0.00 in 0 W/m2
07:44 43.8 °F 40.2 °F 29.35 in SW 10.0 mph 34.0 mph 87 % 0.00 in 5 W/m2
07:49 43.7 °F 40.1 °F 29.35 in SSW 8.0 mph 8.0 mph 87 % 0.00 in 7 W/m2
07:54 43.5 °F 39.9 °F 29.35 in SW 7.0 mph 10.0 mph 87 % 0.00 in 11 W/m2
07:59 43.5 °F 39.9 °F 29.35 in South 7.0 mph 7.0 mph 87 % 0.00 in 14 W/m2
08:04 43.4 °F 39.8 °F 29.35 in SSW 6.0 mph 34.0 mph 87 % 0.00 in 18 W/m2
08:10 43.5 °F 39.9 °F 29.36 in South 6.0 mph 6.0 mph 87 % 0.00 in 21 W/m2
08:15 43.5 °F 39.9 °F 29.36 in South 5.0 mph 34.0 mph 87 % 0.00 in 25 W/m2
08:20 43.5 °F 39.9 °F 29.36 in South 5.0 mph 5.0 mph 87 % 0.00 in 28 W/m2
08:25 43.5 °F 39.9 °F 29.36 in South 4.0 mph 34.0 mph 87 % 0.00 in 39 W/m2
08:30 43.4 °F 39.8 °F 29.36 in SE 2.0 mph 2.0 mph 87 % 0.00 in 42 W/m2
08:35 43.3 °F 39.7 °F 29.36 in ESE 2.0 mph 34.0 mph 87 % 0.00 in 44 W/m2
08:45 43.3 °F 40.0 °F 29.36 in SSE 4.0 mph 34.0 mph 88 % 0.00 in 39 W/m2
08:50 43.3 °F 40.0 °F 29.36 in SSE 6.0 mph 6.0 mph 88 % 0.00 in 35 W/m2
08:55 43.4 °F 40.1 °F 29.36 in South 7.0 mph 7.0 mph 88 % 0.00 in 40 W/m2
09:00 43.5 °F 40.2 °F 29.36 in South 7.0 mph 7.0 mph 88 % 0.00 in 44 W/m2
09:05 43.6 °F 40.3 °F 29.36 in South 6.0 mph 34.0 mph 88 % 0.00 in 46 W/m2
09:15 43.8 °F 40.2 °F 29.37 in South 7.0 mph 34.0 mph 87 % 0.00 in 111 W/m2
09:20 43.9 °F 40.6 °F 29.37 in South 7.0 mph 7.0 mph 88 % 0.00 in 123 W/m2
09:25 43.9 °F 40.3 °F 29.37 in South 6.0 mph 34.0 mph 87 % 0.00 in 167 W/m2
09:30 44.1 °F 40.5 °F 29.36 in South 6.0 mph 34.0 mph 87 % 0.00 in 176 W/m2
09:35 44.3 °F 40.7 °F 29.37 in SSW 7.0 mph 34.0 mph 87 % 0.00 in 192 W/m2
09:40 44.7 °F 41.1 °F 29.37 in SSW 8.0 mph 34.0 mph 87 % 0.00 in 207 W/m2
09:50 45.2 °F 41.3 °F 29.37 in SSW 9.0 mph 34.0 mph 86 % 0.00 in 207 W/m2
09:55 45.4 °F 41.2 °F 29.37 in South 9.0 mph 34.0 mph 85 % 0.00 in 214 W/m2
10:00 45.6 °F 41.4 °F 29.37 in SSW 10.0 mph 10.0 mph 85 % 0.00 in 236 W/m2
10:09 46.1 °F 41.5 °F 29.37 in SSW 10.0 mph 10.0 mph 84 % 0.00 in 243 W/m2
10:15 46.3 °F 41.4 °F 29.37 in South 10.0 mph 19.0 mph 83 % 0.00 in 258 W/m2
10:20 46.4 °F 41.5 °F 29.38 in South 11.0 mph 11.0 mph 83 % 0.00 in 244 W/m2
10:29 46.8 °F 41.9 °F 29.38 in South 9.0 mph 9.0 mph 83 % 0.00 in 207 W/m2
10:34 47.0 °F 41.8 °F 29.38 in South 9.0 mph 15.0 mph 82 % 0.00 in 288 W/m2
10:39 47.2 °F 42.0 °F 29.38 in South 9.0 mph 9.0 mph 82 % 0.00 in 274 W/m2
10:44 47.5 °F 42.0 °F 29.38 in SSE 8.0 mph 34.0 mph 81 % 0.00 in 283 W/m2
10:50 47.7 °F 42.2 °F 29.38 in SSE 7.0 mph 34.0 mph 81 % 0.00 in 281 W/m2
10:55 47.7 °F 42.2 °F 29.37 in SSW 8.0 mph 34.0 mph 81 % 0.00 in 336 W/m2
11:00 47.7 °F 42.2 °F 29.37 in SE 9.0 mph 9.0 mph 81 % 0.00 in 345 W/m2
11:05 47.7 °F 42.2 °F 29.37 in South 9.0 mph 10.0 mph 81 % 0.00 in 255 W/m2
11:10 47.7 °F 42.5 °F 29.37 in South 9.0 mph 34.0 mph 82 % 0.00 in 197 W/m2
11:19 47.3 °F 42.1 °F 29.37 in SSW 9.0 mph 9.0 mph 82 % 0.00 in 178 W/m2
11:25 47.3 °F 42.4 °F 29.37 in South 8.0 mph 34.0 mph 83 % 0.00 in 206 W/m2
11:30 47.4 °F 42.5 °F 29.37 in South 8.0 mph 8.0 mph 83 % 0.00 in 188 W/m2
11:39 47.6 °F 42.7 °F 29.37 in South 6.0 mph 34.0 mph 83 % 0.00 in 186 W/m2
11:44 47.5 °F 42.6 °F 29.37 in South 7.0 mph 34.0 mph 83 % 0.00 in 202 W/m2
11:49 47.7 °F 42.8 °F 29.37 in SSE 8.0 mph 34.0 mph 83 % 0.00 in 355 W/m2
11:55 48.1 °F 43.2 °F 29.36 in SE 8.0 mph 34.0 mph 83 % 0.00 in 413 W/m2
12:00 48.4 °F 43.2 °F 29.36 in South 9.0 mph 34.0 mph 82 % 0.00 in 413 W/m2
12:05 48.6 °F 43.4 °F 29.36 in SE 9.0 mph 34.0 mph 82 % 0.00 in 350 W/m2
12:14 48.7 °F 43.1 °F 29.36 in SSE 9.0 mph 34.0 mph 81 % 0.00 in 190 W/m2
12:20 48.8 °F 43.2 °F 29.36 in South 9.0 mph 34.0 mph 81 % 0.00 in 438 W/m2
12:25 48.7 °F 43.1 °F 29.36 in SSE 10.0 mph 34.0 mph 81 % 0.00 in 476 W/m2
12:34 49.1 °F 43.2 °F 29.35 in SE 10.0 mph 34.0 mph 80 % 0.00 in 165 W/m2
12:40 48.9 °F 43.3 °F 29.35 in ESE 11.0 mph 34.0 mph 81 % 0.00 in 148 W/m2
12:45 48.9 °F 43.3 °F 29.35 in SSE 11.0 mph 34.0 mph 81 % 0.00 in 220 W/m2
12:50 49.1 °F 43.2 °F 29.35 in SE 11.0 mph 11.0 mph 80 % 0.00 in 299 W/m2
12:55 49.1 °F 42.9 °F 29.35 in SE 12.0 mph 12.0 mph 79 % 0.00 in 155 W/m2
13:05 49.1 °F 42.9 °F 29.34 in SSE 10.0 mph 14.0 mph 79 % 0.00 in 153 W/m2
13:10 49.2 °F 43.0 °F 29.33 in SE 9.0 mph 34.0 mph 79 % 0.00 in 315 W/m2
13:15 49.6 °F 43.0 °F 29.33 in SSE 10.0 mph 34.0 mph 78 % 0.00 in 346 W/m2
13:20 49.8 °F 42.5 °F 29.33 in SE 10.0 mph 34.0 mph 76 % 0.00 in 357 W/m2
13:25 49.9 °F 42.3 °F 29.32 in ESE 11.0 mph 34.0 mph 75 % 0.00 in 334 W/m2
13:30 50.2 °F 42.9 °F 29.32 in ESE 10.0 mph 10.0 mph 76 % 0.00 in 195 W/m2
13:40 50.5 °F 42.9 °F 29.32 in ESE 11.0 mph 11.0 mph 75 % 0.00 in 318 W/m2
13:45 50.1 °F 41.8 °F 29.32 in SE 12.0 mph 12.0 mph 73 % 0.00 in 192 W/m2
13:50 49.6 °F 41.7 °F 29.32 in SE 13.0 mph 13.0 mph 74 % 0.00 in 97 W/m2
13:55 49.3 °F 41.7 °F 29.32 in SSE 11.0 mph 34.0 mph 75 % 0.00 in 65 W/m2
14:00 49.0 °F 41.8 °F 29.31 in South 11.0 mph 11.0 mph 76 % 0.00 in 84 W/m2
14:09 49.0 °F 41.8 °F 29.31 in SE 10.0 mph 10.0 mph 76 % 0.00 in 130 W/m2
14:15 49.0 °F 41.4 °F 29.31 in SE 10.0 mph 34.0 mph 75 % 0.00 in 118 W/m2
14:20 48.9 °F 41.3 °F 29.31 in SSE 11.0 mph 34.0 mph 75 % 0.00 in 120 W/m2
14:25 48.7 °F 41.1 °F 29.31 in SSE 12.0 mph 34.0 mph 75 % 0.00 in 142 W/m2
14:30 48.7 °F 41.5 °F 29.30 in ESE 10.0 mph 10.0 mph 76 % 0.00 in 116 W/m2
14:35 48.7 °F 41.5 °F 29.31 in SSE 10.0 mph 34.0 mph 76 % 0.00 in 83 W/m2
14:44 48.6 °F 41.4 °F 29.30 in SE 9.0 mph 34.0 mph 76 % 0.00 in 40 W/m2
14:49 48.6 °F 41.4 °F 29.30 in SSE 8.0 mph 8.0 mph 76 % 0.00 in 37 W/m2
14:54 48.5 °F 41.3 °F 29.30 in SE 9.0 mph 10.0 mph 76 % 0.00 in 39 W/m2
15:00 48.4 °F 41.2 °F 29.29 in SSE 10.0 mph 10.0 mph 76 % 0.00 in 44 W/m2
15:05 48.3 °F 41.1 °F 29.29 in SSE 10.0 mph 11.0 mph 76 % 0.00 in 35 W/m2
15:14 48.2 °F 41.3 °F 29.29 in SE 9.0 mph 34.0 mph 77 % 0.00 in 46 W/m2
15:20 48.1 °F 41.2 °F 29.28 in SE 8.0 mph 34.0 mph 77 % 0.00 in 42 W/m2
15:25 48.1 °F 41.6 °F 29.28 in SE 9.0 mph 34.0 mph 78 % 0.00 in 56 W/m2
15:30 48.1 °F 41.6 °F 29.27 in ESE 10.0 mph 10.0 mph 78 % 0.00 in 69 W/m2
15:35 48.1 °F 41.9 °F 29.27 in ESE 10.0 mph 34.0 mph 79 % 0.00 in 70 W/m2
15:40 48.1 °F 41.9 °F 29.27 in ESE 10.0 mph 10.0 mph 79 % 0.00 in 51 W/m2
15:50 48.0 °F 41.8 °F 29.27 in ESE 10.0 mph 10.0 mph 79 % 0.00 in 46 W/m2
15:55 48.0 °F 42.1 °F 29.27 in SE 10.0 mph 11.0 mph 80 % 0.00 in 42 W/m2
16:00 48.0 °F 42.1 °F 29.27 in ESE 10.0 mph 10.0 mph 80 % 0.00 in 39 W/m2
16:05 48.0 °F 42.1 °F 29.26 in SE 11.0 mph 13.0 mph 80 % 0.00 in 42 W/m2
16:10 48.0 °F 42.4 °F 29.27 in ESE 11.0 mph 11.0 mph 81 % 0.00 in 39 W/m2
16:15 47.9 °F 42.3 °F 29.26 in ESE 10.0 mph 34.0 mph 81 % 0.00 in 26 W/m2
16:20 47.9 °F 42.3 °F 29.26 in ESE 9.0 mph 34.0 mph 81 % 0.00 in 23 W/m2
16:25 47.9 °F 42.7 °F 29.25 in ESE 11.0 mph 34.0 mph 82 % 0.00 in 18 W/m2
16:30 47.8 °F 42.6 °F 29.25 in ENE 10.0 mph 10.0 mph 82 % 0.00 in 11 W/m2
16:35 47.6 °F 42.4 °F 29.25 in ESE 10.0 mph 11.0 mph 82 % 0.00 in 7 W/m2
16:40 47.5 °F 42.6 °F 29.25 in SSE 10.0 mph 10.0 mph 83 % 0.00 in 7 W/m2
16:50 47.2 °F 42.3 °F 29.25 in SE 9.0 mph 9.0 mph 83 % 0.00 in 0 W/m2
16:55 47.1 °F 42.2 °F 29.25 in SE 9.0 mph 12.0 mph 83 % 0.00 in 0 W/m2
17:05 47.0 °F 42.1 °F 29.25 in ESE 10.0 mph 34.0 mph 83 % 0.00 in 0 W/m2
17:10 47.0 °F 42.1 °F 29.24 in SE 9.0 mph 9.0 mph 83 % 0.00 in 0 W/m2
17:15 47.0 °F 42.1 °F 29.24 in ESE 10.0 mph 10.0 mph 83 % 0.00 in 0 W/m2
17:25 47.0 °F 42.1 °F 29.24 in SE 12.0 mph 14.0 mph 83 % 0.00 in 0 W/m2
17:30 47.0 °F 42.1 °F 29.24 in SE 13.0 mph 34.0 mph 83 % 0.00 in 0 W/m2
17:35 47.0 °F 42.1 °F 29.24 in ESE 13.0 mph 34.0 mph 83 % 0.00 in 0 W/m2
17:40 47.0 °F 42.4 °F 29.24 in SE 13.0 mph 34.0 mph 84 % 0.00 in 0 W/m2
17:45 46.9 °F 42.3 °F 29.24 in ESE 13.0 mph 34.0 mph 84 % 0.00 in 0 W/m2
17:50 46.9 °F 42.3 °F 29.24 in ESE 13.0 mph 13.0 mph 84 % 0.00 in 0 W/m2
18:00 46.9 °F 42.6 °F 29.24 in ESE 14.0 mph 14.0 mph 85 % 0.00 in 0 W/m2
18:05 46.9 °F 42.6 °F 29.23 in ESE 14.0 mph 18.0 mph 85 % 0.00 in 0 W/m2
18:10 46.9 °F 42.6 °F 29.23 in ESE 13.0 mph 34.0 mph 85 % 0.00 in 0 W/m2
18:15 46.8 °F 42.5 °F 29.23 in SE 13.0 mph 34.0 mph 85 % 0.00 in 0 W/m2
18:20 46.8 °F 42.5 °F 29.23 in SE 13.0 mph 13.0 mph 85 % 0.00 in 0 W/m2
18:30 46.7 °F 42.4 °F 29.23 in ESE 15.0 mph 34.0 mph 85 % 0.00 in 0 W/m2
18:35 46.7 °F 42.4 °F 29.22 in East 14.0 mph 34.0 mph 85 % 0.00 in 0 W/m2
18:40 46.6 °F 42.3 °F 29.22 in ESE 14.0 mph 14.0 mph 85 % 0.00 in 0 W/m2
18:45 46.6 °F 42.3 °F 29.22 in ESE 13.0 mph 34.0 mph 85 % 0.00 in 0 W/m2
18:50 46.6 °F 42.3 °F 29.22 in South 12.0 mph 34.0 mph 85 % 0.00 in 0 W/m2
18:55 46.5 °F 42.2 °F 29.22 in East 12.0 mph 34.0 mph 85 % 0.00 in 0 W/m2
19:05 46.4 °F 42.4 °F 29.22 in ESE 12.0 mph 34.0 mph 86 % 0.00 in 0 W/m2
19:10 46.4 °F 42.1 °F 29.22 in SSE 13.0 mph 13.0 mph 85 % 0.00 in 0 W/m2
19:15 46.4 °F 42.4 °F 29.21 in ESE 14.0 mph 14.0 mph 86 % 0.00 in 0 W/m2
19:20 46.3 °F 42.3 °F 29.21 in ESE 12.0 mph 34.0 mph 86 % 0.00 in 0 W/m2
19:25 46.3 °F 42.3 °F 29.21 in ESE 12.0 mph 34.0 mph 86 % 0.00 in 0 W/m2
19:35 46.2 °F 42.2 °F 29.21 in SE 13.0 mph 20.0 mph 86 % 0.00 in 0 W/m2
19:40 46.2 °F 42.2 °F 29.20 in ESE 12.0 mph 12.0 mph 86 % 0.00 in 0 W/m2
19:45 46.1 °F 42.4 °F 29.20 in SE 12.0 mph 34.0 mph 87 % 0.00 in 0 W/m2
19:50 45.8 °F 42.4 °F 29.20 in ESE 12.0 mph 12.0 mph 88 % 0.00 in 0 W/m2
19:55 45.6 °F 42.5 °F 29.20 in ESE 13.0 mph 13.0 mph 89 % 0.00 in 0 W/m2
20:00 45.4 °F 42.6 °F 29.19 in ESE 12.0 mph 12.0 mph 90 % 0.00 in 0 W/m2
20:10 45.1 °F 42.6 °F 29.19 in ESE 11.0 mph 34.0 mph 91 % 0.00 in 0 W/m2
20:15 45.0 °F 42.5 °F 29.19 in ESE 11.0 mph 34.0 mph 91 % 0.00 in 0 W/m2
20:20 44.9 °F 42.7 °F 29.18 in ESE 11.0 mph 34.0 mph 92 % 0.00 in 0 W/m2
20:25 44.9 °F 42.7 °F 29.18 in SE 10.0 mph 34.0 mph 92 % 0.00 in 0 W/m2
20:35 44.8 °F 42.6 °F 29.17 in ESE 11.0 mph 13.0 mph 92 % 0.00 in 0 W/m2
20:40 44.8 °F 42.6 °F 29.18 in ESE 11.0 mph 34.0 mph 92 % 0.00 in 0 W/m2
20:45 44.8 °F 42.6 °F 29.17 in SE 12.0 mph 34.0 mph 92 % 0.00 in 0 W/m2
20:55 44.9 °F 42.7 °F 29.17 in ESE 11.0 mph 34.0 mph 92 % 0.00 in 0 W/m2
21:00 44.8 °F 42.6 °F 29.17 in ESE 10.0 mph 10.0 mph 92 % 0.00 in 0 W/m2
21:05 44.8 °F 42.6 °F 29.17 in SE 10.0 mph 13.0 mph 92 % 0.00 in 0 W/m2
21:15 44.7 °F 42.5 °F 29.17 in SE 11.0 mph 11.0 mph 92 % 0.00 in 0 W/m2
21:20 44.7 °F 42.5 °F 29.16 in ESE 11.0 mph 34.0 mph 92 % 0.00 in 0 W/m2
21:25 44.7 °F 42.5 °F 29.16 in ESE 10.0 mph 34.0 mph 92 % 0.00 in 0 W/m2
21:30 44.6 °F 42.7 °F 29.16 in SE 9.0 mph 9.0 mph 93 % 0.00 in 0 W/m2
21:35 44.6 °F 42.7 °F 29.16 in SSE 8.0 mph 14.0 mph 93 % 0.00 in 0 W/m2
21:40 44.5 °F 42.6 °F 29.16 in SE 8.0 mph 8.0 mph 93 % 0.00 in 0 W/m2
21:45 44.4 °F 42.5 °F 29.16 in SE 8.0 mph 9.0 mph 93 % 0.00 in 0 W/m2
21:50 44.4 °F 42.8 °F 29.15 in ESE 9.0 mph 34.0 mph 94 % 0.00 in 0 W/m2
21:55 44.3 °F 42.7 °F 29.15 in ESE 10.0 mph 34.0 mph 94 % 0.00 in 0 W/m2
22:00 44.3 °F 42.7 °F 29.15 in ESE 9.0 mph 34.0 mph 94 % 0.00 in 0 W/m2
22:05 44.3 °F 42.7 °F 29.15 in SE 9.0 mph 34.0 mph 94 % 0.00 in 0 W/m2
22:10 44.2 °F 42.6 °F 29.15 in SE 10.0 mph 10.0 mph 94 % 0.00 in 0 W/m2
22:15 44.3 °F 42.7 °F 29.15 in SE 10.0 mph 34.0 mph 94 % 0.00 in 0 W/m2
22:20 44.2 °F 42.6 °F 29.15 in ESE 10.0 mph 10.0 mph 94 % 0.00 in 0 W/m2
22:25 44.2 °F 42.6 °F 29.15 in ESE 9.0 mph 34.0 mph 94 % 0.00 in 0 W/m2
22:30 44.2 °F 42.6 °F 29.14 in SE 8.0 mph 34.0 mph 94 % 0.00 in 0 W/m2
22:35 44.2 °F 42.9 °F 29.14 in SE 8.0 mph 34.0 mph 95 % 0.00 in 0 W/m2
22:40 44.2 °F 42.9 °F 29.14 in ESE 8.0 mph 34.0 mph 95 % 0.00 in 0 W/m2
22:45 44.1 °F 42.8 °F 29.14 in SE 8.0 mph 34.0 mph 95 % 0.00 in 0 W/m2
22:55 44.2 °F 42.9 °F 29.14 in SE 9.0 mph 34.0 mph 95 % 0.00 in 0 W/m2
23:00 44.1 °F 42.8 °F 29.14 in ESE 9.0 mph 9.0 mph 95 % 0.00 in 0 W/m2
23:05 44.1 °F 42.5 °F 29.14 in SE 9.0 mph 34.0 mph 94 % 0.00 in 0 W/m2
23:10 44.2 °F 42.6 °F 29.14 in SSE 9.0 mph 9.0 mph 94 % 0.00 in 0 W/m2
23:20 44.1 °F 42.5 °F 29.14 in SE 8.0 mph 34.0 mph 94 % 0.00 in 0 W/m2
23:25 44.1 °F 42.5 °F 29.14 in SE 7.0 mph 34.0 mph 94 % 0.00 in 0 W/m2
23:30 44.1 °F 42.5 °F 29.14 in SE 7.0 mph 34.0 mph 94 % 0.00 in 0 W/m2
23:40 44.1 °F 42.5 °F 29.14 in SSE 7.0 mph 34.0 mph 94 % 0.00 in 0 W/m2
23:45 44.1 °F 42.5 °F 29.14 in SE 7.0 mph 34.0 mph 94 % 0.00 in 0 W/m2
23:50 44.1 °F 42.8 °F 29.15 in SSW 7.0 mph 7.0 mph 95 % 0.00 in 0 W/m2
23:55 43.0 °F 40.8 °F 29.16 in WNW 8.0 mph 9.0 mph 92 % 0.75 in 0 W/m2
Delerius-Weather
Compliments of Weather Underground - 2 mb

Data updates at regular intervals.